Location: Estes Park
(40.3770°N, 105.5210°W)
Time: 04:14:11
(UTC-06:00)

N. Korean satellite - Pass Details

Date: 10 October 2017
Orbit: 459 x 517 km, 97.2° (Epoch: 21 October)

Event Time Altitude Azimuth Distance (km) Brightness Sun altitude
Rises 18:56:43 0° 162° (SSE) 2,563 10.1 -6.0°
Reaches altitude 10° 18:58:48 10° 160° (SSE) 1,676 9.1 -6.4°
Maximum altitude 19:02:23 71° 77° (ENE) 516 6.5 -7.1°
Drops below altitude 10° 19:05:55 10° 353° (N) 1,656 9.3 -7.8°
Sets 19:07:58 0° 351° (N) 2,530 10.3 -8.2°
